sat.trackr.live / text

‹ back to catalog

QIANFAN-35

NORAD 61568 · 2024-185S

PAYLOAD ACTIVE UNKNOWN

§ Identity

Operator
Country
PRC
Launch date
2024-10-15
Launch site
TAISC
Launch vehicle
Mass (kg)
RCS (m²)

External: N2YO · Heavens-Above · Gunter

§ Orbital elements

Epoch: 2026-05-25T03:56:34.196352Z

Period
100.82 min
Inclination
88.9836°
Eccentricity
0.0008686
Mean motion
14.28238297 rev/d
Perigee alt
791.4 km
Apogee alt
803.9 km
Semi-major
7,175.8 km
B*
2.3336e-4
RAAN
57.6849°
Arg perigee
101.1554°
Mean anomaly
259.0617°
Rev number
9,350

§ Raw data

QIANFAN-351 61568U 24185S   26145.16428468  .00000596  00000+0  23336-3 0  99922 61568  88.9836  57.6849 0008686 101.1554 259.0617 14.28238297 93507

JSON: /api/v1/satellites/61568 · /tle

For live sub-satellite position, see the globe view (requires WebGL).

§ Visibility from observer

Set your observer location to see the next 7 days of passes ≥ 10°. The values pass through the URL so the page stays shareable.

No JS? Fill the form by hand. The geolocation button needs JavaScript.